User: anonymous   Login
Location: Niverville
(49.6028°N, 97.0419°W)
Time: 04:50:09
(UTC-06:00)
Language:

Cosmos 2237 Rocket - Orbit

View from above orbital plane
View from above orbital plane
View from above satellite
View from above satellite

Ground track
Ground track

The orbit data is extracted from the following two-line orbital elements,

1 22566U 93016B   16040.53871906 -.00000002  00000-0  23592-4 0  9998
2 22566  71.0086  23.0956 0009921 178.1380 181.9781 14.14924850181440
Epoch (UTC): 09 February 2016 12:55:45
Eccentricity: 0.0009921
inclination: 71.0086°
perigee height: 835 km
apogee height: 850 km
right ascension of ascending node: 23.0956°
argument of perigee: 178.1380°
revolutions per day: 14.14924850
mean anomaly at epoch: 181.9781°
orbit number at epoch: 18144

The dashed part of the orbit path shows where the satellite is in the earth's shadow,  

DLR